Flag for U.S.A. Weather past 2 weeks in Passaic, New Jersey, U.S.A.

Now
79 °F

Sunny.


Feels Like: 80 °F
Forecast: 69 / 82 °F
Wind: 8 mph from South

Location: Teterboro Airport

Current Time: Aug 21, 2014 at 7:07:44 PM

Latest Report: Aug 21, 2014 at 5:51 PM


Visibility: 10 mi

Pressure: 29.99 "Hg

Humidity: 45%

Dew point: 56 °F

Location of PassaicLocation

Historic Weather in Passaic — Graph

°F

Passaic temperature yesterday

Maximum temperature yesterday: 84 °F (at 1:51 PM)
Minimum temperature yesterday: 69 °F (at 2:51 AM)
Average temperature yesterday: 76 °F

Past Weeks' High & Low Weather Summary

 TemperatureHumidityPressure
High92 °F (Aug 10, 2:51 PM)90% (Aug 13, 2:51 AM)30.14 "Hg (Aug 13, 2:51 AM)
Low59 °F (Aug 15, 4:51 AM)23% (Aug 9, 5:51 PM)29.64 "Hg (Aug 13, 4:51 PM)
Average74 °F55%29.95 "Hg
* Reported Aug 6 5:51 PM — Aug 21 5:51 PM, Passaic, Weather by CustomWeather, © 2014

Note: Actual official high and low records may vary slightly from our data, if they occured in-between our weather recording intervals... More about our weather records

Advertising

Passaic weather history for previous 24 hours

 ConditionsComfort  
Time TempWeatherWind HumidityBarometerVisibility
5:51 PM
Aug 21
79 °FSunny.8 mph45%29.99 "Hg10 mi
4:51 PM80 °FBroken clouds.13 mph49%30.00 "Hg10 mi
3:51 PM85 °FSunny.13 mph45%30.00 "Hg10 mi
2:51 PM81 °FOvercast.12 mph53%30.01 "Hg10 mi
1:51 PM81 °FScattered clouds.10 mph51%30.01 "Hg10 mi
12:51 PM79 °FOvercast.8 mph50%30.03 "Hg10 mi
11:51 AM80 °FPartly sunny.6 mph44%30.03 "Hg10 mi
10:51 AM79 °FPartly sunny.9 mph47%30.04 "Hg10 mi
9:51 AM75 °FOvercast.No wind62%30.05 "Hg10 mi
8:51 AM73 °FSunny.No wind74%30.05 "Hg10 mi
7:51 AM70 °FSunny.No wind81%30.05 "Hg9 mi
6:51 AM68 °FPassing clouds.No wind82%30.03 "Hg10 mi
5:51 AM67 °FLight rain. Overcast.No wind87%30.03 "Hg10 mi
4:51 AM68 °FLight rain. Mostly cloudy.No wind82%30.02 "Hg5 mi
3:51 AM71 °FLight rain. Mostly cloudy.No wind71%30.02 "Hg9 mi
2:51 AM72 °FMostly cloudy.6 mph68%30.02 "Hg10 mi
1:51 AM73 °FMostly cloudy.5 mph66%30.03 "Hg10 mi
12:51 AM72 °FPassing clouds.5 mph68%30.03 "Hg10 mi
11:51 PM
Aug 20
73 °FClear.7 mph69%30.02 "Hg10 mi
10:51 PM73 °FClear.5 mph66%30.00 "Hg10 mi
9:51 PM73 °FClear.5 mph62%30.00 "Hg10 mi
8:51 PM74 °FClear.7 mph57%30.00 "Hg10 mi
7:51 PM76 °FSunny.7 mph48%29.99 "Hg10 mi
Weather by CustomWeather, © 2014

See weather overviewHow to use our weather pages